| time (UTC) | temp F | wind direction | speed knots | gust knots | rain 1hr in | rain 24hr in | rain mn in | humidity % | barometer mb |
| 20260510220017 | 75 | 44 | 2.6 | 7.0 | 0.00 | 0.00 | 0.00 | 22 | 1017.6 |
| 20260510214523 | 75 | 5 | 1.7 | 7.0 | 0.00 | 0.00 | 0.00 | 21 | 1017.7 |
| 20260510213030 | 76 | 313 | 1.7 | 5.2 | 0.00 | 0.00 | 0.00 | 25 | 1017.9 |
| 20260510211510 | 74 | 239 | 1.7 | 4.3 | 0.00 | 0.00 | 0.00 | 19 | 1018.1 |
| 20260510210013 | 73 | 298 | 1.7 | 8.7 | 0.00 | 0.00 | 0.00 | 20 | 1018.4 |
| 20260510204524 | 72 | 346 | 1.7 | 6.1 | 0.00 | 0.00 | 0.00 | 22 | 1018.5 |
| 20260510203034 | 72 | 348 | 1.7 | 4.3 | 0.00 | 0.00 | 0.00 | 25 | 1018.7 |
| 20260510201528 | 72 | 317 | 6.1 | 9.6 | 0.00 | 0.00 | 0.00 | 24 | 1018.8 |
| 20260510200014 | 72 | 98 | 0.9 | 3.5 | 0.00 | 0.00 | 0.00 | 22 | 1018.8 |
| 20260510194516 | 71 | 307 | 1.7 | 6.1 | 0.00 | 0.00 | 0.00 | 24 | 1019.0 |
| 20260510193022 | 70 | 360 | 2.6 | 6.1 | 0.00 | 0.00 | 0.00 | 22 | 1019.2 |
| 20260510191525 | 69 | 16 | 2.6 | 8.7 | 0.00 | 0.00 | 0.00 | 25 | 1019.4 |
| 20260510190013 | 69 | 348 | 2.6 | 7.8 | 0.00 | 0.00 | 0.00 | 28 | 1019.7 |
| 20260510184516 | 68 | 195 | 4.3 | 6.1 | 0.00 | 0.00 | 0.00 | 32 | 1019.9 |
| 20260510183022 | 67 | 304 | 3.5 | 7.8 | 0.00 | 0.00 | 0.00 | 26 | 1020.0 |
| 20260510181527 | 68 | 9 | 0.9 | 4.3 | 0.00 | 0.00 | 0.00 | 30 | 1020.1 |
| 20260510180028 | 67 | 11 | 0.9 | 3.5 | 0.00 | 0.00 | 0.00 | 30 | 1020.3 |
| 20260510174516 | 66 | 27 | 1.7 | 5.2 | 0.00 | 0.00 | 0.00 | 29 | 1020.5 |
| 20260510173020 | 65 | 296 | 0.9 | 3.5 | 0.00 | 0.00 | 0.00 | 31 | 1020.6 |
| 20260510171521 | 64 | 352 | 1.7 | 5.2 | 0.00 | 0.00 | 0.00 | 35 | 1020.6 |
| 20260510170025 | 63 | 296 | 2.6 | 4.3 | 0.00 | 0.00 | 0.00 | 46 | 1020.8 |
| 20260510164527 | 62 | 350 | 1.7 | 3.5 | 0.00 | 0.00 | 0.00 | 48 | 1020.8 |
| 20260510163020 | 60 | 21 | 0.9 | 3.5 | 0.00 | 0.00 | 0.00 | 46 | 1021.0 |
| 20260510161521 | 58 | 360 | 1.7 | 3.5 | 0.00 | 0.00 | 0.00 | 45 | 1021.1 |
| 20260510160034 | 58 | 294 | 2.6 | 4.3 | 0.00 | 0.00 | 0.00 | 49 | 1021.2 |
| 20260510154528 | 57 | 347 | 0.9 | 2.6 | 0.00 | 0.00 | 0.00 | 56 | 1021.2 |
| 20260510153036 | 55 | 352 | 0.9 | 2.6 | 0.00 | 0.00 | 0.00 | 53 | 1021.4 |
| 20260510151520 | 52 | 14 | 0.9 | 2.6 | 0.00 | 0.00 | 0.00 | 53 | 1021.6 |
| 20260510150011 | 52 | 275 | 2.6 | 3.5 | 0.00 | 0.00 | 0.00 | 52 | 1021.7 |
| 20260510144518 | 54 | 242 | 0.9 | 2.6 | 0.00 | 0.00 | 0.00 | 51 | 1021.6 |
| 20260510143018 | 53 | 237 | 0.9 | 3.5 | 0.00 | 0.00 | 0.00 | 51 | 1021.6 |
| 20260510141527 | 54 | 222 | 0.9 | 2.6 | 0.00 | 0.00 | 0.00 | 51 | 1021.6 |
| 20260510140022 | 52 | 129 | 0.0 | 0.9 | 0.00 | 0.00 | 0.00 | 51 | 1021.8 |
| 20260510134507 | 48 | 187 | 1.7 | 4.3 | 0.00 | 0.00 | 0.00 | 58 | 1021.8 |
| 20260510133013 | 46 | 169 | 3.5 | 5.2 | 0.00 | 0.00 | 0.00 | 62 | 1021.7 |
| 20260510131514 | 43 | 130 | 0.0 | 2.6 | 0.00 | 0.00 | 0.00 | 63 | 1021.8 |
| 20260510130020 | 42 | 132 | 0.0 | 0.0 | 0.00 | 0.00 | 0.00 | 62 | 1021.9 |
| 20260510124524 | 42 | 203 | 0.0 | 0.0 | 0.00 | 0.00 | 0.00 | 61 | 1022.0 |
| 20260510123010 | 43 | 203 | 0.0 | 0.0 | 0.00 | 0.00 | 0.00 | 59 | 1022.0 |
| 20260510121512 | 46 | 186 | 0.9 | 2.6 | 0.00 | 0.00 | 0.00 | 54 | 1021.9 |
| 20260510120019 | 47 | 99 | 1.7 | 3.5 | 0.00 | 0.00 | 0.00 | 52 | 1021.8 |
| 20260510114523 | 47 | 98 | 1.7 | 3.5 | 0.00 | 0.00 | 0.00 | 52 | 1021.9 |
| 20260510113026 | 47 | 102 | 1.7 | 2.6 | 0.00 | 0.00 | 0.00 | 52 | 1021.8 |
| 20260510111508 | 47 | 94 | 2.6 | 3.5 | 0.00 | 0.00 | 0.00 | 52 | 1021.8 |
| 20260510110020 | 47 | 116 | 2.6 | 3.5 | 0.00 | 0.00 | 0.00 | 53 | 1021.9 |
| 20260510104531 | 46 | 105 | 2.6 | 3.5 | 0.00 | 0.00 | 0.00 | 54 | 1021.9 |
| 20260510103026 | 47 | 104 | 2.6 | 3.5 | 0.00 | 0.00 | 0.00 | 53 | 1022.0 |
| 20260510101524 | 47 | 103 | 2.6 | 3.5 | 0.00 | 0.00 | 0.00 | 52 | 1022.0 |
| 20260510094537 | 47 | 117 | 1.7 | 2.6 | 0.00 | 0.00 | 0.00 | 51 | 1021.8 |
| 20260510093022 | 46 | 137 | 1.7 | 2.6 | 0.00 | 0.00 | 0.00 | 54 | 1021.8 |
| 20260510091526 | 46 | 136 | 0.9 | 1.7 | 0.00 | 0.00 | 0.00 | 53 | 1021.8 |
| 20260510090024 | 47 | 114 | 1.7 | 3.5 | 0.00 | 0.00 | 0.00 | 53 | 1021.8 |
| 20260510084516 | 46 | 117 | 1.7 | 2.6 | 0.00 | 0.00 | 0.00 | 55 | 1021.8 |
| 20260510083028 | 46 | 145 | 0.9 | 3.5 | 0.00 | 0.00 | 0.00 | 56 | 1021.9 |
| 20260510081534 | 46 | 114 | 1.7 | 2.6 | 0.00 | 0.00 | 0.00 | 56 | 1021.9 |
| 20260510080032 | 46 | 116 | 0.0 | 0.0 | 0.00 | 0.00 | 0.00 | 56 | 1021.8 |
| 20260510074529 | 46 | 116 | 0.0 | 0.0 | 0.00 | 0.00 | 0.00 | 56 | 1021.7 |
| 20260510073018 | 45 | 113 | 0.0 | 0.0 | 0.00 | 0.00 | 0.00 | 57 | 1021.7 |
| 20260510071524 | 46 | 205 | 0.0 | 0.0 | 0.00 | 0.00 | 0.00 | 56 | 1021.6 |
| 20260510070032 | 47 | 287 | 0.0 | 0.0 | 0.00 | 0.00 | 0.00 | 53 | 1021.5 |
| 20260510064525 | 49 | 306 | 0.0 | 0.0 | 0.00 | 0.00 | 0.00 | 50 | 1021.4 |
| 20260510063029 | 51 | 112 | 0.0 | 0.0 | 0.00 | 0.00 | 0.00 | 46 | 1021.3 |
| 20260510061526 | 51 | 46 | 0.0 | 5.2 | 0.00 | 0.00 | 0.00 | 46 | 1021.2 |
| 20260510060006 | 51 | 109 | 3.5 | 6.1 | 0.00 | 0.00 | 0.00 | 45 | 1021.2 |
| 20260510054535 | 52 | 109 | 5.2 | 7.0 | 0.00 | 0.00 | 0.00 | 45 | 1021.0 |
| 20260510053014 | 51 | 110 | 5.2 | 6.1 | 0.00 | 0.00 | 0.00 | 45 | 1021.1 |
| 20260510051529 | 52 | 116 | 5.2 | 6.1 | 0.00 | 0.00 | 0.00 | 45 | 1021.1 |
| 20260510050026 | 52 | 107 | 5.2 | 7.0 | 0.00 | 0.00 | 0.00 | 45 | 1021.2 |
| 20260510044523 | 52 | 104 | 5.2 | 7.0 | 0.00 | 0.00 | 0.00 | 45 | 1021.0 |
| 20260510043020 | 52 | 108 | 5.2 | 6.1 | 0.00 | 0.00 | 0.00 | 45 | 1021.0 |
| 20260510041516 | 52 | 106 | 5.2 | 7.0 | 0.00 | 0.00 | 0.00 | 45 | 1020.8 |
| 20260510040023 | 52 | 114 | 5.2 | 7.8 | 0.00 | 0.00 | 0.00 | 45 | 1020.7 |
| 20260510034522 | 52 | 116 | 5.2 | 7.0 | 0.00 | 0.00 | 0.00 | 45 | 1020.6 |
| 20260510033010 | 52 | 110 | 5.2 | 7.0 | 0.00 | 0.00 | 0.00 | 45 | 1020.4 |
| 20260510031512 | 52 | 103 | 4.3 | 6.1 | 0.00 | 0.00 | 0.00 | 45 | 1020.1 |
| 20260510030020 | 53 | 107 | 4.3 | 6.1 | 0.00 | 0.00 | 0.00 | 45 | 1020.1 |
| 20260510024520 | 54 | 103 | 2.6 | 3.5 | 0.00 | 0.00 | 0.00 | 43 | 1020.0 |
| 20260510023026 | 58 | 106 | 0.9 | 1.7 | 0.00 | 0.00 | 0.00 | 37 | 1019.9 |
| 20260510021516 | 59 | 84 | 0.9 | 1.7 | 0.00 | 0.00 | 0.00 | 34 | 1019.8 |
| 20260510020016 | 59 | 80 | 0.9 | 1.7 | 0.00 | 0.00 | 0.00 | 36 | 1019.8 |
| 20260510014521 | 60 | 73 | 0.0 | 1.7 | 0.00 | 0.00 | 0.00 | 33 | 1019.8 |
| 20260510013024 | 61 | 77 | 0.9 | 1.7 | 0.00 | 0.00 | 0.00 | 34 | 1019.7 |
| 20260510011529 | 61 | 66 | 0.0 | 1.7 | 0.00 | 0.00 | 0.00 | 35 | 1019.6 |
| 20260510010016 | 61 | 16 | 0.0 | 1.7 | 0.00 | 0.00 | 0.00 | 37 | 1019.8 |
| 20260510004520 | 63 | 348 | 1.7 | 4.3 | 0.00 | 0.00 | 0.00 | 33 | 1019.9 |
| 20260510003024 | 62 | 93 | 0.9 | 3.5 | 0.00 | 0.00 | 0.00 | 32 | 1020.0 |
| 20260510001529 | 63 | 331 | 1.7 | 3.5 | 0.00 | 0.00 | 0.00 | 33 | 1019.8 |
| 20260510000027 | 63 | 317 | 1.7 | 3.5 | 0.00 | 0.00 | 0.00 | 31 | 1019.6 |
| 20260509234520 | 62 | 347 | 3.5 | 7.0 | 0.00 | 0.00 | 0.00 | 31 | 1019.7 |
| 20260509233019 | 63 | 315 | 1.7 | 5.2 | 0.00 | 0.00 | 0.00 | 31 | 1019.7 |
| 20260509231526 | 62 | 269 | 3.5 | 6.1 | 0.00 | 0.00 | 0.00 | 32 | 1019.6 |
| 20260509230027 | 62 | 72 | 0.9 | 7.8 | 0.00 | 0.00 | 0.00 | 30 | 1019.7 |
| 20260509224528 | 62 | 326 | 2.6 | 7.0 | 0.00 | 0.00 | 0.00 | 31 | 1019.8 |
| 20260509223020 | 62 | 75 | 1.7 | 7.0 | 0.00 | 0.00 | 0.00 | 32 | 1019.8 |
| 20260509221529 | 61 | 360 | 3.5 | 7.0 | 0.00 | 0.00 | 0.00 | 36 | 1019.9 |